Regional Weather Roundup
Issued by NWS

Home | Current Version | Previous Version | Graphics & Text | Print | Product List | Glossary On
Versions: 1 2 3 4 5 6 7 8 9 10 11 12 13 14 15 16 17 18 19 20 21 22 23 24 25 26 27 28 29 30 31 32 33 34 35 36 37 38 39 40 41 42 43 44 45 46 47 48 49 50
000
ASUS43 KMKX 192100
RWRWI

WISCONSIN REGIONAL WEATHER ROUNDUP
NATIONAL WEATHER SERVICE MILWAUKEE/SULLIVAN WI
300 PM CST SUN FEB 19 2017

NOTE: "FAIR" INDICATES FEW OR NO CLOUDS BELOW 12,000 FEET WITH NO
SIGNIFICANT WEATHER AND/OR OBSTRUCTIONS TO VISIBILITY.

WIZ001-002-006>008-014>016-023>028-192200-
NORTHWEST WISCONSIN

CITY           SKY/WX    TMP DP  RH WIND       PRES   REMARKS
SUPERIOR ARPT  CLOUDY    40  33  75 E9G16     29.98F WCI  34
ASHLAND        CLOUDY    43  33  68 N7        30.00S
HAYWARD        CLOUDY    56  30  37 SE6       29.96F
SIREN          CLOUDY    58  31  35 SE7       29.92F
CUMBERLAND     PTSUNNY   52  34  50 SE9       29.94F
RICE LAKE      PTSUNNY   54  33  46 SE10      29.96F
CHETEK         PTSUNNY   54  33  43 SE10      29.96F
LADYSMITH      MOSUNNY   56  32  39 SE5       29.99F
EAU CLAIRE     NOT AVBL
MENOMONIE      MOSUNNY   55  37  50 E8        29.94F
NEW RICHMOND   CLOUDY    54  38  54 SE6       29.93F
OSCEOLA        CLOUDY    56  39  53 SE12      29.94F
$$

WIZ003>005-009-010-017-018-192200-
NORTH CENTRAL WISCONSIN

CITY           SKY/WX    TMP DP  RH WIND       PRES   REMARKS
MANITOWISH WTR CLOUDY    53  27  37 SE3       29.98F
ARBOR VITAE    PTSUNNY   56  29  36 S5        29.99S
WOODRUFF       PTSUNNY   56  29  36 S5        29.99S
RHINELANDER    MOSUNNY   57  26  30 CALM      30.00S
EAGLE RIVER    CLOUDY    53  26  35 CALM      30.00R
LAND O LAKES   MOSUNNY   54  22  29 CALM      30.01S
PHILLIPS       MOSUNNY   57  29  33 CALM      29.98S
TOMAHAWK       SUNNY     56  25  30 CALM      30.01R
MEDFORD        CLOUDY    49  32  52 S5        30.00S
MERRILL        NOT AVBL
$$

WIZ029-030-035-036-043>047-192200-
CENTRAL WISCONSIN

CITY           SKY/WX    TMP DP  RH WIND       PRES   REMARKS
WAUSAU         SUNNY     57  31  37 CALM      29.99S
MOSINEE        MOSUNNY   54  32  43 S8        30.02R
MARSHFIELD     SUNNY     55  31  39 SE8       29.99S
STEVENS POINT  SUNNY     55  32  42 SE7       30.02R
WAUPACA        MOSUNNY   60  34  37 CALM      30.03R
WAUTOMA        SUNNY     60  35  39 S7        30.02S
WISC RAPIDS    SUNNY     62  34  35 VRB5      30.01S
CAMP DOUGLAS   NOT AVBL
$$

WIZ011>013-019>022-031-037>040-048>050-192200-
NORTHEAST WISCONSIN

CITY           SKY/WX    TMP DP  RH WIND       PRES   REMARKS
ANTIGO         SUNNY     46  33  60 CALM      30.02S
SHAWANO        SUNNY     52  36  54 CALM      30.04R
OCONTO         MOSUNNY   53  31  44 SE5       30.05R
STURGEON BAY   MOSUNNY   48  32  53 SE8       30.07R
GREEN BAY      SUNNY     57  39  51 SW6       30.04R
MANITOWOC      NOT AVBL
APPLETON       MOSUNNY   55  30  38 VRB6      30.02S
CLINTONVILLE   SUNNY     57  32  38 S5        30.03R
OSHKOSH        CLOUDY    52  37  56 CALM      30.04R
$$

WIZ032>034-041-042-053>061-192200-
SOUTHWEST WISCONSIN

CITY           SKY/WX    TMP DP  RH WIND       PRES   REMARKS
LA CROSSE      SUNNY     63  36  36 S5        29.96F
SPARTA         SUNNY     64  34  33 S9        29.99S
VIROQUA        SUNNY     59  37  44 SE3       29.98S
BOSCOBEL       CLOUDY    65  37  35 VRB6      29.99R
PRAIRIE DU CHI CLOUDY    63  40  41 E8        29.97S
PLATTEVILLE    SUNNY     62  40  44 SE7       30.00S
$$

WIZ056-057-062-063-064-067-068-192200-
SOUTH CENTRAL WISCONSIN

CITY           SKY/WX    TMP DP  RH WIND       PRES   REMARKS
REEDSBURG      SUNNY     62  37  39 S6        30.00S
BARABOO/DELLS  SUNNY     60  35  39 S6        30.00S
LONE ROCK      NOT AVBL
MINERAL POINT  SUNNY     63  41  45 SE7       30.00S
MADISON        PTSUNNY   61  35  37 S9        30.02S
MIDDLETON      SUNNY     65  37  36 S10       30.02S
WATERTOWN      SUNNY     62  33  33 S7        30.03S
MONROE         SUNNY     63  37  39 S9        30.01S
JANESVILLE     SUNNY     66  34  30 S8        30.02S
$$

WIZ051-052-058>065-066-070>072-192200-
SOUTHEAST WISCONSIN

CITY           SKY/WX    TMP DP  RH WIND       PRES   REMARKS
MILWAUKEE      PTSUNNY   53  31  42 SE9       30.06S
WAUKESHA       SUNNY     63  28  27 S6        30.04S
MILWAUKEE/TIMM NOT AVBL
RACINE         SUNNY     51  31  46 E8        30.07S
KENOSHA        SUNNY     56  32  40 E8        30.06R
FOND DU LAC    MOSUNNY   60  34  37 S9        30.03S
SHEBOYGAN      CLOUDY    54  34  46 SE8       30.05R
WEST BEND      SUNNY     61  32  33 SE10      30.03S
JUNEAU         SUNNY     60  34  38 S7        30.04S
$$

LSZ147-162-192200-
LAKE SUPERIOR

STATION/POSITION TIME  TEMP    WIND        PRES    WAVE
                       AIR SEA DIR/SP/G            HT/PER
                 (UTC) (F)     (DEG/KT/KT) (MB)    (FT/S)
DEVILS ISLAND    2000   36      60/ 13/ 15 1017.0R
PORT WING        2040   35      30/ 11/ 12 1015.2F
SAXON HARBOR     2040   36     330/  3/  5 1015.9S
$$

LMZ867-665-643>646-192200-
LAKE MICHIGAN

STATION/POSITION TIME  TEMP    WIND        PRES    WAVE
                       AIR SEA DIR/SP/G            HT/PER
                 (UTC) (F)     (DEG/KT/KT) (MB)    (FT/S)
CHAMBERS ISLAND  2040   42      60/  3/  4 1017.3R
NORTHPORT PIER   2040   39     140/  2/  4 1017.9R
SISTER BAY       2005   59        CALM       N/A
KEWAUNEE LAKESHO 2030   43     150/  1/  4 1017.4R
SHEBOYGAN LAKESH 2000   44     120/  5/  5 1017.7S
PORT WASHINGTON  2040   49      CALM  /  3 1018.6S
MILWAUKEE LAKESH 2030   47     120/  1/  1   N/A
KENOSHA   LAKESH 2000   52        CALM     1017.9
$$

TC  - TEMPERATURE IN CELSIUS
VSB - VISIBILITY IN STATUTE MILES
WCI - WIND CHILL INDEX
HX  - HEAT INDEX




USA.gov is the U.S. government's official web portal to all federal, state and local government web resources and services.